Location: Broekland
(52.3610°N, 6.2005°E)
Time: 06:38:45
(UTC+00:00)

Cosmos 1125 Rocket - Pass Details

Date: 19 May 2025
Orbit: 753 x 776 km, 74.0° (Epoch: 22 June)

Event Time Altitude Azimuth Distance (km) Brightness Sun altitude
Rises 21:01:38 0° 331° (NNW) 3,269 8.9 -10.6°
Reaches altitude 10° 21:04:05 10° 326° (NNW) 2,337 7.6 -10.9°
Maximum altitude 21:09:11 50° 253° (WSW) 989 4.2 -11.3°
Enters shadow 21:14:06 11° 180° (S) 2,262 5.4 -11.7°
